Погода в Кирге

Россия / Пермский край     56°21′14″N   55°10′16″E
темп.,
°C
ветер,
м/с
пор.,
м/с
влажн.,
%
обл.,
%
осадки,
мм/ч
давл.,
гПа
погр.,
м
22 апреля, чт
чт2223:00+7юв41254100 0.0 1028241
02:00+7ю61450100 0.0 1028459
05:00+6ю61160100 0.1 1029861
08:00+6ю81474100 0.0 10281003
11:00+4ю81295100 0.3 1029897
14:00+5ю61286100 0.0 1030879
17:00+7ююз5971100 0.0 1030774
20:00+6ю71186100 0.2 1030697
23 апреля, пт
пт2323:00+3ю61096100 0.4 1030570
02:00+3ю5997100 0.4 1029519
05:00+2ю4897100 0.7 1029448
08:00+3ю4797100 0.1 1030380
11:00+4ю3596100 0.1 1030370
14:00+6ю3484100 0.0 1030613
17:00+7юв4575100 0.1 1029792
20:00+6в3585100 0.0 1028186
24 апреля, сб
сб2423:00+4всв469342 0.0 1026109
02:00+3всв4793100 0.0 1024130
05:00+4в2394100 0.0 102345
08:00+5юв4996100 0.4 1021290
11:00+6вюв41195100 1.2 1020530
14:00+10юв5773100 0.2 10171228
17:00+9вюв5880100 0.6 1016701
20:00+7в4887100 0.5 1014224
25 апреля, вс
вс2523:00+6юв3793100 0.9 1013313
02:00+6юв5995100 1.1 1012588
05:00+6ююв5895100 1.9 1011365
08:00+6ююв5992100 0.1 1010486
11:00+10ююв796777 0.1 10081088
14:00+7ююз61088100 3.9 1009978
17:00+9зюз8116211 5.3 10111652
20:00+8юз510635 0.3 1013273
26 апреля, пн
пн2623:00+4ююз41086100 0.5 1014179
02:00+4ююз388653 0.1 1015163
05:00+3ююз41186100 0.1 1015229
08:00+5ю4986100 0.3 1015628
11:00+8юз686192 1.1 10151194
14:00+10юз794581 0.1 10152169
17:00+10юз684172 0.1 10142077
20:00+8ююз3659100 0.0 1013124